Lufkin, TX

7:36 PM CST on December 13, 2017 (GMT -0600)
Angelina County

Weather History for KLFK - February, 2014

Change the Weather History Date:

Saturday, February 1, 2014

  Actual Average Record
Temperature  
Mean Temperature 66 °F 50 °F  
Max Temperature 72 °F 61 °F 81 °F (1911)
Min Temperature 60 °F 39 °F 9 °F (1951)
Degree Days  
Heating Degree Days 0 15  
Month to date heating degree days 0 15  
Since 1 July heating degree days 1433 1295  
Cooling Degree Days 1 0  
Month to date cooling degree days 1 0  
Year to date cooling degree days 1 8  
Growing Degree Days 16 (Base 50)    
Moisture  
Dew Point 61 °F    
Average Humidity 79    
Maximum Humidity 90    
Minimum Humidity 68    
Precipitation  
Precipitation 0.01 in 0.14 in 1.39 in (1970)
Month to date precipitation 0.01 0.14  
Year to date precipitation 1.21 4.32  
Snow  
Snow 0.00 in - - ()
Month to date snowfall 0.0  
Since 1 July snowfall 3.2  
Snow Depth 0.00 in    
Sea Level Pressure  
Sea Level Pressure 29.89 in    
Wind  
Wind Speed 8 mph (SSE)    
Max Wind Speed 15 mph    
Max Gust Speed 22 mph    
Visibility 9 miles    
Events Rain    
T = Trace of Precipitation, MM = Missing Value Source: NWS Daily Summary

Daily Weather History Graph

Daily Weather History Graph

Search for Another Location

Airport or City:

Trip Planner

Search our weather history database for the weather conditions in past years. The results will help you decide how hot, cold, wet, or windy it might be!

Date:

Astronomy

Feb. 01, 2014 Rise Set
Actual Time 7:11 AM CST 5:54 PM CST
Civil Twilight 6:45 AM CST 6:19 PM CST
Nautical Twilight 6:16 AM CST 6:48 PM CST
Astronomical Twilight 5:48 AM CST 7:17 PM CST
Moon 8:12 AM CST (2/1) 8:17 PM CST (2/1)
Length of Visible Light 11h 33m
Length of Day
10h 43m
Waxing Crescent, 5% of the Moon is Illuminated
Feb 1
Waxing Crescent
Feb 6
First Quarter
Feb 14
Full
Feb 22
Last Quarter
Mar 1
New

Hourly Weather History & Observations

Time (CST) Temp. Dew Point Humidity Pressure Visibility Wind Dir Wind Speed Gust Speed Precip Events Conditions
12:53 AM 61.0 °F 54.0 °F 78% 29.90 in 10.0 mi SSE 9.2 mph - N/A   Overcast
1:53 AM 61.0 °F 54.0 °F 78% 29.89 in 10.0 mi SSE 10.4 mph - N/A   Overcast
2:53 AM 61.0 °F 55.0 °F 81% 29.88 in 10.0 mi South 9.2 mph 16.1 mph N/A   Overcast
3:53 AM 60.1 °F 55.0 °F 83% 29.88 in 10.0 mi SSE 6.9 mph - N/A   Overcast
4:49 AM 60.8 °F 55.4 °F 82% 29.89 in 10.0 mi SSE 6.9 mph - N/A   Overcast
4:53 AM 61.0 °F 55.9 °F 83% 29.88 in 10.0 mi SSE 6.9 mph - N/A   Overcast
5:53 AM 60.1 °F 55.9 °F 86% 29.86 in 10.0 mi SE 9.2 mph - N/A   Overcast
6:53 AM 61.0 °F 57.0 °F 87% 29.85 in 10.0 mi SSE 10.4 mph - N/A   Overcast
7:53 AM 62.1 °F 57.9 °F 86% 29.85 in 10.0 mi SE 9.2 mph - N/A   Overcast
8:13 AM 62.6 °F 57.2 °F 82% 29.86 in 10.0 mi SSE 11.5 mph - N/A   Overcast
8:53 AM 64.9 °F 59.0 °F 81% 29.88 in 10.0 mi SSE 8.1 mph - N/A   Overcast
9:16 AM 66.2 °F 59.0 °F 78% 29.89 in 10.0 mi SSE 8.1 mph - N/A   Overcast
9:27 AM 66.2 °F 60.8 °F 83% 29.90 in 10.0 mi South 8.1 mph - N/A   Overcast
9:53 AM 66.9 °F 60.1 °F 79% 29.91 in 10.0 mi South 10.4 mph - N/A   Overcast
10:53 AM 69.1 °F 61.0 °F 75% 29.91 in 10.0 mi SSE 5.8 mph - N/A   Overcast
11:53 AM 70.0 °F 61.0 °F 73% 29.90 in 10.0 mi South 5.8 mph - N/A   Overcast
12:29 PM 71.6 °F 60.8 °F 69% 29.89 in 10.0 mi South 9.2 mph - N/A   Overcast
12:53 PM 72.0 °F 61.0 °F 68% 29.88 in 10.0 mi South 6.9 mph - N/A   Overcast
1:53 PM 71.1 °F 61.0 °F 70% 29.86 in 10.0 mi SSE 9.2 mph - 0.00 in   Overcast
2:53 PM 72.0 °F 61.0 °F 68% 29.85 in 10.0 mi South 9.2 mph - N/A   Overcast
3:23 PM 71.6 °F 60.8 °F 69% 29.86 in 10.0 mi South 8.1 mph - N/A   Overcast
3:53 PM 72.0 °F 61.0 °F 68% 29.85 in 10.0 mi South 9.2 mph - N/A   Overcast
4:01 PM 71.6 °F 60.8 °F 69% 29.86 in 10.0 mi South 6.9 mph - N/A   Overcast
4:53 PM 69.1 °F 63.0 °F 81% 29.86 in 10.0 mi SE 5.8 mph - N/A   Overcast
5:53 PM 68.0 °F 63.0 °F 84% 29.86 in 10.0 mi ESE 6.9 mph - N/A   Overcast
6:53 PM 68.0 °F 63.0 °F 84% 29.87 in 10.0 mi SE 8.1 mph - N/A   Overcast
7:53 PM 68.0 °F 63.0 °F 84% 29.88 in 10.0 mi SE 6.9 mph - N/A   Overcast
8:16 PM 68.0 °F 62.6 °F 83% 29.89 in 10.0 mi SSE 9.2 mph - N/A   Overcast
8:53 PM 68.0 °F 63.0 °F 84% 29.89 in 10.0 mi SSE 8.1 mph - N/A   Overcast
9:13 PM 68.0 °F 62.6 °F 83% 29.91 in 10.0 mi SSE 8.1 mph - N/A   Overcast
9:48 PM 68.0 °F 64.4 °F 88% 29.91 in 4.0 mi SSE 5.8 mph - 0.00 in Rain Light Rain
9:53 PM 68.0 °F 64.0 °F 87% 29.90 in 4.0 mi SSE 5.8 mph - 0.00 in Rain Light Rain
10:09 PM 66.2 °F 64.4 °F 94% 29.91 in 8.0 mi SSE 8.1 mph - 0.01 in Rain Light Rain
10:30 PM 66.2 °F 64.4 °F 94% 29.92 in 8.0 mi SSE 6.9 mph - 0.01 in   Overcast
10:40 PM 66.2 °F 64.4 °F 94% 29.92 in 7.0 mi SSE 6.9 mph - 0.01 in   Overcast
10:53 PM 66.9 °F 64.0 °F 90% 29.91 in 7.0 mi SSE 5.8 mph - 0.01 in   Overcast
11:10 PM 66.2 °F 64.4 °F 94% 29.92 in 8.0 mi SSE 8.1 mph - N/A   Overcast
11:44 PM 66.2 °F 64.4 °F 94% 29.91 in 7.0 mi SSE 12.7 mph - N/A   Overcast
11:53 PM 66.9 °F 64.0 °F 90% 29.90 in 7.0 mi SE 12.7 mph - N/A   Overcast